This demonstration page uses our WeatherBlox Daily Observations layout. Learn more.

Left ArrowRight Arrow

Hourly Observations for October 23, 2019

Temp ( °F °C ) Dew Point ( °F °C ) Humidity (%) Winds ( mph kmh ) Pressure ( in mb ) Visibility ( mi km ) Precip ( " mm )
12:53 am 00:53 Clear 52 11.1 41 5 66 66 WNW 6 9 30.09 1019 10 16 0.00 0.00
1:53 am 01:53 Clear 51 10.6 41 5 69 69 WNW 3 6 30.09 1019 10 16 0.00 0.00
2:53 am 02:53 Clear 50 10 41 5 71 71 W 5 7 30.10 1019 10 16 0.00 0.00
3:53 am 03:53 Clear 48 8.9 41 5 77 77 Calm 30.11 1020 10 16 0.00 0.00
4:53 am 04:53 Clear 47 8.3 40 4.4 77 77 SE 3 6 30.11 1020 10 16 0.00 0.00
5:53 am 05:53 Clear 43 6.1 40 4.4 89 89 Calm 30.12 1020 10 16 0.00 0.00
6:53 am 06:53 Clear 45 7.2 40 4.4 83 83 Calm 30.14 1021 10 16 0.00 0.00
7:53 am 07:53 Sunny 44 6.7 38 3.3 79 79 Calm 30.15 1021 10 16 0.00 0.00
8:53 am 08:53 Sunny 47 8.3 41 5 80 80 Calm 30.18 1022 10 16 0.00 0.00
9:53 am 09:53 Sunny 52 11.1 42 5.6 69 69 Calm 30.18 1022 10 16 0.00 0.00
10:53 am 10:53 Sunny 60 15.6 39 3.9 46 46 N 7 11 30.18 1022 10 16 0.00 0.00
11:53 am 11:53 Sunny 63 17.2 34 1.1 34 34 NNE 7 11 30.20 1023 10 16 0.00 0.00
12:53 pm 12:53 Sunny 64 17.8 34 1.1 33 33 VRB 7 11 30.20 1023 10 16 0.00 0.00
1:53 pm 13:53 Sunny 66 18.9 34 1.1 30 30 VRB 6 9 30.17 1022 10 16 0.00 0.00
2:53 pm 14:53 Sunny 67 19.4 32 0 27 27 N 8 13 30.14 1021 10 16 0.00 0.00
3:53 pm 15:53 Sunny 68 20 33 0.6 27 27 NE 7 11 30.13 1020 10 16 0.00 0.00
4:53 pm 16:53 Sunny 67 19.4 33 0.6 28 28 SW 3 6 30.14 1021 10 16 0.00 0.00
5:53 pm 17:53 Sunny 67 19.4 34 1.1 30 30 Calm 30.14 1021 10 16 0.00 0.00
6:53 pm 18:53 Sunny 61 16.1 41 5 48 48 Calm 30.15 1021 10 16 0.00 0.00
7:53 pm 19:53 Clear 54 12.2 45 7.2 72 72 Calm 30.17 1022 10 16 0.00 0.00
8:53 pm 20:53 Clear 51 10.6 45 7.2 80 80 Calm 30.19 1022 10 16 0.00 0.00
9:53 pm 21:53 Clear 48 8.9 45 7.2 89 89 Calm 30.20 1023 10 16 0.00 0.00
10:53 pm 22:53 Clear 47 8.3 44 6.7 90 90 Calm 30.21 1023 10 16 0.00 0.00
11:53 pm 23:53 Clear 46 7.8 43 6.1 89 89 Calm 30.21 1023 10 16 0.00 0.00

Powered by AerisWeather